TimeEST,TemperatureF,Dew PointF,Humidity,Sea Level PressureIn,VisibilityMPH,Wind Direction,Wind SpeedMPH,Gust SpeedMPH,PrecipitationIn,Events,Conditions,WindDirDegrees,DateUTC
12:54 AM,34.0,28.0,79,30.04,10.0,Calm,Calm,-,N/A,,Overcast,0,2012-12-29 05:54:00
1:54 AM,34.0,28.9,82,30.01,9.0,East,4.6,-,N/A,,Overcast,90,2012-12-29 06:54:00
2:54 AM,35.1,28.9,78,30.01,10.0,Calm,Calm,-,N/A,,Overcast,0,2012-12-29 07:54:00
3:54 AM,35.1,28.9,78,29.97,10.0,ENE,5.8,-,N/A,,Overcast,70,2012-12-29 08:54:00
4:54 AM,35.1,28.9,78,29.93,10.0,East,6.9,-,N/A,,Overcast,100,2012-12-29 09:54:00
5:54 AM,35.1,30.0,82,29.87,10.0,East,6.9,-,N/A,,Overcast,100,2012-12-29 10:54:00
6:54 AM,35.6,30.2,81,29.85,9.0,ESE,5.8,-,N/A,,Overcast,110,2012-12-29 11:54:00
7:54 AM,36.0,30.9,82,29.80,8.0,East,6.9,-,N/A,,Overcast,90,2012-12-29 12:54:00
8:54 AM,37.0,30.9,79,29.78,7.0,East,4.6,-,N/A,,Overcast,100,2012-12-29 13:54:00
9:54 AM,37.0,30.9,79,29.78,4.0,Calm,Calm,-,0.01,Snow,Light Snow,0,2012-12-29 14:54:00
10:06 AM,35.6,32.0,87,29.78,2.0,Calm,Calm,-,0.00,Snow,Light Snow,0,2012-12-29 15:06:00
10:13 AM,35.6,32.0,87,29.78,1.0,Calm,Calm,-,0.02,Snow,Light Snow,0,2012-12-29 15:13:00
10:23 AM,33.8,32.0,93,29.77,0.8,SE,3.5,-,0.04,Snow,Light Snow,130,2012-12-29 15:23:00
10:31 AM,33.8,32.0,93,29.76,0.5,SE,3.5,-,0.06,Fog-Snow,Snow,130,2012-12-29 15:31:00
10:35 AM,32.0,32.0,100,29.76,0.5,SE,3.5,-,0.07,Fog-Snow,Snow,130,2012-12-29 15:35:00
10:37 AM,32.0,32.0,100,29.76,0.2,SE,3.5,-,0.07,Fog-Snow,Heavy Snow,130,2012-12-29 15:37:00
10:46 AM,32.0,32.0,100,29.75,0.5,Calm,Calm,-,0.09,Fog-Snow,Snow,0,2012-12-29 15:46:00
10:54 AM,32.0,32.0,100,29.75,0.5,Calm,Calm,-,0.10,Fog-Snow,Snow,0,2012-12-29 15:54:00
11:15 AM,32.0,32.0,100,29.72,0.8,Calm,Calm,-,0.02,Snow,Light Snow,0,2012-12-29 16:15:00
11:28 AM,32.0,32.0,100,29.72,0.5,Calm,Calm,-,0.02,Fog-Snow,Snow,0,2012-12-29 16:28:00
11:39 AM,32.0,32.0,100,29.70,0.5,East,3.5,-,0.03,Fog-Snow,Snow,100,2012-12-29 16:39:00
11:54 AM,32.0,32.0,100,29.69,0.5,Calm,Calm,-,0.03,Fog-Snow,Snow,0,2012-12-29 16:54:00
12:49 PM,33.8,32.0,93,29.64,0.8,Calm,Calm,-,0.01,Snow,Light Snow,0,2012-12-29 17:49:00
12:54 PM,33.1,33.1,100,29.63,1.2,Calm,Calm,-,0.01,Snow,Light Snow,0,2012-12-29 17:54:00
1:39 PM,33.8,32.0,93,29.61,1.2,Calm,Calm,-,0.01,Snow,Light Snow,0,2012-12-29 18:39:00
1:54 PM,34.0,33.1,96,29.60,1.2,NW,3.5,-,0.01,Snow,Light Snow,320,2012-12-29 18:54:00
2:08 PM,33.8,33.8,100,29.59,1.2,NW,3.5,-,0.00,Rain-Snow,Light Snow,320,2012-12-29 19:08:00
2:48 PM,35.6,33.8,93,29.57,2.0,Calm,Calm,-,0.00,Rain,Light Rain,0,2012-12-29 19:48:00
2:54 PM,35.1,34.0,96,29.57,2.5,Calm,Calm,-,0.00,Rain,Light Rain,0,2012-12-29 19:54:00
3:13 PM,35.6,33.8,93,29.57,3.0,Calm,Calm,-,N/A,,Overcast,0,2012-12-29 20:13:00
3:54 PM,37.0,35.1,93,29.57,4.0,West,8.1,-,0.00,,Mostly Cloudy,270,2012-12-29 20:54:00
4:02 PM,37.4,33.8,87,29.56,5.0,West,6.9,-,N/A,,Scattered Clouds,270,2012-12-29 21:02:00
4:54 PM,36.0,33.1,89,29.57,8.0,West,8.1,-,N/A,,Scattered Clouds,270,2012-12-29 21:54:00
5:54 PM,37.4,33.8,87,29.59,10.0,West,9.2,-,N/A,,Overcast,280,2012-12-29 22:54:00
6:54 PM,39.0,33.1,79,29.63,10.0,WNW,12.7,-,N/A,,Overcast,290,2012-12-29 23:54:00
7:54 PM,39.0,28.9,67,29.66,10.0,NW,10.4,19.6,N/A,,Overcast,310,2012-12-30 00:54:00
8:54 PM,37.9,28.0,68,29.70,10.0,WNW,20.7,32.2,N/A,,Overcast,300,2012-12-30 01:54:00
9:54 PM,37.0,27.0,67,29.73,10.0,West,16.1,23.0,N/A,,Overcast,280,2012-12-30 02:54:00
10:54 PM,37.0,27.0,67,29.76,10.0,WNW,10.4,26.5,N/A,,Overcast,290,2012-12-30 03:54:00
11:54 PM,37.9,27.0,65,29.79,10.0,West,15.0,21.9,N/A,,Overcast,280,2012-12-30 04:54:00